M0UPS-13 Weather Reports


time (UTC)temp
C
wind
direction
speed
KPH
gust
KPH
rain 1hr
cm
rain 24hr
cm
rain mn
cm
humidity
%
barometer
mb
20260506094502 14 279 1.6 14.5 0.00 0.00 0.00 49 1013.6
20260506094002 14 254 4.8 6.4 0.00 0.00 0.00 49 1013.7
20260506093503 14 257 1.6 3.2 0.00 0.00 0.00 50 1013.7
20260506093002 14 271 0.0 6.4 0.00 0.00 0.00 51 1013.6
20260506092502 13 253 1.6 4.8 0.00 0.00 0.00 53 1013.7
20260506092002 12 169 3.2 4.8 0.00 0.00 0.00 55 1013.4
20260506091502 14 295 4.8 11.3 0.00 0.00 0.00 50 1013.5
20260506091002 14 250 3.2 4.8 0.00 0.00 0.00 52 1013.6
20260506090502 13 267 0.0 8.0 0.00 0.00 0.00 56 1013.4
20260506090002 13 227 1.6 6.4 0.00 0.00 0.00 54 1013.5
20260506085502 12 271 3.2 4.8 0.00 0.00 0.00 57 1013.5
20260506085002 13 318 6.4 9.7 0.00 0.00 0.00 53 1013.4
20260506084502 13 285 1.6 8.0 0.00 0.00 0.00 54 1013.5
20260506084002 14 237 1.6 6.4 0.00 0.00 0.00 58 1013.5
20260506083502 14 122 4.8 8.0 0.00 0.00 0.00 52 1013.4
20260506083002 13 279 3.2 6.4 0.00 0.00 0.00 54 1013.4
20260506082502 12 250 1.6 4.8 0.00 0.00 0.00 60 1013.4
20260506082002 12 303 4.8 8.0 0.00 0.00 0.00 59 1013.3
20260506081503 12 263 1.6 4.8 0.00 0.00 0.00 60 1013.3
20260506081002 12 159 1.6 6.4 0.00 0.00 0.00 62 1013.5
20260506080502 12 45 4.8 9.7 0.00 0.00 0.00 62 1013.4
20260506073502 10 282 1.6 3.2 0.00 0.00 0.00 70 1013.5
20260506073002 10 280 1.6 4.8 0.00 0.00 0.00 71 1013.5
20260506072502 10 243 1.6 3.2 0.00 0.00 0.00 72 1013.5
20260506072002 10 277 0.0 4.8 0.00 0.00 0.00 72 1013.4
20260506071502 10 288 0.0 4.8 0.00 0.00 0.00 71 1013.6
20260506071002 10 243 0.0 0.0 0.00 0.00 0.00 73 1013.6
20260506070502 9 257 1.6 6.4 0.00 0.00 0.00 72 1013.4
20260506062503 9 255 1.6 3.2 0.00 0.00 0.00 73 1013.3
20260506062002 9 274 1.6 8.0 0.00 0.00 0.00 73 1013.4
20260506061502 8 252 1.6 3.2 0.00 0.00 0.00 73 1013.2
20260506061002 9 283 1.6 3.2 0.00 0.00 0.00 73 1013.3
20260506060502 9 120 1.6 6.4 0.00 0.00 0.00 72 1013.4
20260506051002 8 250 0.0 3.2 0.00 0.00 0.00 78 1013.1
20260506050502 8 257 0.0 0.0 0.00 0.00 0.00 78 1013.0
20260506045002 8 27 3.2 3.2 0.00 0.00 0.00 78 1013.0
20260506044502 8 288 1.6 4.8 0.00 0.00 0.00 78 1012.9
20260506044002 8 246 1.6 3.2 0.00 0.00 0.00 78 1013.0
20260506043502 8 244 1.6 3.2 0.00 0.00 0.00 78 1013.1
20260506043002 8 282 0.0 0.0 0.00 0.00 0.00 78 1013.0
20260506042502 8 246 0.0 3.2 0.00 0.00 0.00 77 1012.9
20260506042002 8 225 0.0 4.8 0.00 0.00 0.00 77 1013.0
20260506041502 8 234 1.6 3.2 0.00 0.00 0.00 77 1012.9
20260506041002 8 245 1.6 3.2 0.00 0.00 0.00 77 1013.0
20260506040502 8 261 1.6 4.8 0.00 0.00 0.00 77 1012.9
20260506040003 8 250 0.0 4.8 0.00 0.00 0.00 77 1012.9
20260506035502 8 210 1.6 3.2 0.00 0.00 0.00 76 1012.8
20260506035002 8 261 0.0 0.0 0.00 0.00 0.00 75 1012.8
20260506034502 8 252 0.0 3.2 0.00 0.00 0.00 75 1012.8
20260506034002 8 256 0.0 3.2 0.00 0.00 0.00 74 1012.8
20260506033502 8 260 0.0 3.2 0.00 0.00 0.00 73 1012.5
20260506033002 9 256 0.0 0.0 0.00 0.00 0.00 73 1012.6
20260506032502 9 13 1.6 4.8 0.00 0.00 0.00 72 1012.8
20260506032002 9 58 1.6 4.8 0.00 0.00 0.00 73 1012.8
20260506031502 9 31 1.6 8.0 0.00 0.00 0.00 73 1012.8
20260506031002 9 239 3.2 4.8 0.00 0.00 0.00 74 1012.9
20260506030502 9 15 4.8 6.4 0.00 0.00 0.00 75 1012.6
20260506030002 9 263 1.6 3.2 0.00 0.00 0.00 76 1012.8
20260506025502 10 267 0.0 3.2 0.00 0.00 0.00 76 1012.9
20260506025002 10 270 0.0 0.0 0.00 0.00 0.00 75 1012.9
20260506024502 10 301 1.6 3.2 0.00 0.00 0.00 75 1012.8
20260506024002 10 257 0.0 0.0 0.00 0.00 0.00 75 1012.8
20260506023502 10 288 0.0 3.2 0.00 0.00 0.00 75 1012.6
20260506023002 10 300 0.0 6.4 0.00 0.00 0.00 75 1013.0
20260506022502 10 327 3.2 8.0 0.00 0.00 0.00 74 1013.0
20260506022002 10 33 3.2 4.8 0.00 0.00 0.00 75 1012.6
20260506021502 10 136 1.6 4.8 0.00 0.00 0.00 75 1012.9
20260506021004 10 77 4.8 11.3 0.00 0.00 0.00 75 1013.0
20260506020502 10 280 1.6 6.4 0.00 0.00 0.00 75 1013.1
20260506020002 10 5 3.2 4.8 0.00 0.00 0.00 74 1012.9
20260506015502 10 343 1.6 4.8 0.00 0.00 0.00 74 1013.0
20260506015003 10 23 3.2 8.0 0.00 0.00 0.00 74 1013.0
20260506014502 10 2 3.2 6.4 0.00 0.00 0.00 74 1013.1
20260506014002 10 257 0.0 6.4 0.00 0.00 0.00 74 1013.1
20260506013502 10 342 1.6 3.2 0.00 0.00 0.00 73 1013.0
20260506013002 10 143 3.2 8.0 0.00 0.00 0.00 73 1013.1
20260506012502 10 25 1.6 6.4 0.00 0.00 0.00 73 1013.3
20260506012002 10 46 3.2 11.3 0.00 0.00 0.00 72 1013.3
20260506011502 10 257 1.6 4.8 0.00 0.00 0.00 72 1013.3
20260506011002 10 323 1.6 6.4 0.00 0.00 0.00 71 1013.2
20260506010502 10 296 1.6 8.0 0.00 0.00 0.00 71 1013.2
20260506010002 10 299 0.0 3.2 0.00 0.00 0.00 72 1013.3
20260506005502 10 299 1.6 3.2 0.00 0.00 0.00 72 1013.2
20260506005002 10 263 1.6 4.8 0.00 0.00 0.00 71 1013.3
20260506004503 10 54 4.8 6.4 0.00 0.00 0.00 71 1013.1
20260506004002 10 173 3.2 4.8 0.00 0.00 0.00 71 1013.4
20260506003502 11 316 1.6 6.4 0.00 0.00 0.00 71 1013.3
20260506003002 11 316 1.6 6.4 0.00 0.00 0.00 71 1013.3
20260506002502 11 307 1.6 4.8 0.00 0.00 0.00 70 1013.3
20260506002002 11 305 1.6 4.8 0.00 0.00 0.00 71 1013.4
20260506001502 11 27 3.2 4.8 0.00 0.00 0.00 70 1013.1
20260506001002 11 3 3.2 8.0 0.00 0.00 0.00 70 1013.4
20260506000502 11 282 1.6 4.8 0.00 0.00 0.00 70 1013.4
20260506000003 11 308 1.6 6.4 0.00 0.00 0.00 69 1013.4
20260505235502 11 298 0.0 4.8 0.00 0.00 0.00 69 1013.3
20260505235002 11 322 3.2 8.0 0.00 0.00 0.00 69 1013.2
20260505234502 11 77 3.2 6.4 0.00 0.00 0.00 69 1013.3
20260505234002 11 339 1.6 9.7 0.00 0.00 0.00 69 1013.3
20260505233502 11 140 1.6 6.4 0.00 0.00 0.00 69 1013.1
20260505233002 11 69 1.6 4.8 0.00 0.00 0.00 68 1013.2
20260505232502 11 336 9.7 14.5 0.00 0.00 0.00 68 1013.1
20260505232002 11 326 3.2 4.8 0.00 0.00 0.00 69 1013.1
20260505231502 11 16 4.8 14.5 0.00 0.00 0.00 69 1013.1
20260505231002 11 353 3.2 4.8 0.00 0.00 0.00 72 1013.4
20260505230502 11 322 4.8 9.7 0.00 0.00 0.00 74 1013.2
20260505230002 11 292 3.2 6.4 0.00 0.00 0.00 75 1013.3
20260505225502 11 314 1.6 6.4 0.00 0.00 0.00 75 1013.1
20260505225002 11 329 3.2 4.8 0.00 0.00 0.00 74 1013.2
20260505224502 11 4 3.2 6.4 0.00 0.00 0.00 74 1013.3
20260505224002 11 335 4.8 8.0 0.00 0.00 0.00 73 1013.3
20260505223502 11 335 3.2 6.4 0.00 0.00 0.00 73 1013.2
20260505223002 11 74 3.2 11.3 0.00 0.00 0.00 72 1013.3
20260505222502 11 128 8.0 14.5 0.00 0.00 0.00 72 1013.5
20260505222002 11 35 6.4 9.7 0.00 0.00 0.00 74 1013.4
20260505221502 11 359 4.8 8.0 0.00 0.00 0.00 75 1013.3
20260505221002 11 343 1.6 8.0 0.00 0.00 0.00 75 1013.1
20260505220502 12 10 1.6 8.0 0.00 0.00 0.00 75 1013.3
20260505220002 12 52 3.2 9.7 0.00 0.00 0.00 74 1013.3
20260505215502 12 118 3.2 9.7 0.00 0.00 0.00 71 1013.2
20260505215002 12 262 1.6 8.0 0.00 0.00 0.00 68 1013.3
20260505214502 12 333 1.6 6.4 0.00 0.00 0.00 66 1013.2
20260505214002 12 95 3.2 8.0 0.00 0.00 0.00 66 1013.1
20260505213502 12 32 3.2 8.0 0.00 0.00 0.00 66 1012.9
20260505213002 12 308 1.6 6.4 0.00 0.00 0.00 66 1013.0
20260505212502 12 225 0.0 3.2 0.00 0.00 0.00 67 1012.9
20260505212002 12 264 0.0 3.2 0.00 0.00 0.00 67 1012.9
20260505211502 12 285 3.2 4.8 0.00 0.00 0.00 67 1013.0
20260505211002 12 223 1.6 4.8 0.00 0.00 0.00 68 1013.0
20260505210502 12 71 3.2 6.4 0.00 0.00 0.00 68 1012.9
20260505210002 12 193 1.6 4.8 0.00 0.00 0.00 68 1012.9
20260505205502 12 167 3.2 6.4 0.00 0.00 0.00 68 1012.9
20260505205002 12 311 1.6 4.8 0.00 0.00 0.00 67 1013.0
20260505204502 12 117 4.8 8.0 0.00 0.00 0.00 65 1012.9
20260505204002 13 58 3.2 8.0 0.00 0.00 0.00 64 1012.9
20260505203502 13 94 3.2 9.7 0.00 0.00 0.00 63 1012.6
20260505203002 13 18 1.6 4.8 0.00 0.00 0.00 62 1012.8
20260505202502 13 39 4.8 6.4 0.00 0.00 0.00 61 1012.6
20260505202002 13 70 6.4 8.0 0.00 0.00 0.00 61 1012.5
20260505201502 13 40 3.2 9.7 0.00 0.00 0.00 61 1012.6
20260505201002 13 70 3.2 8.0 0.00 0.00 0.00 61 1012.4
20260505200502 13 21 6.4 8.0 0.00 0.00 0.00 59 1012.6
20260505200002 13 302 1.6 9.7 0.00 0.00 0.00 57 1012.4
20260505195502 13 331 1.6 6.4 0.00 0.00 0.00 57 1012.1
20260505195002 13 20 4.8 8.0 0.00 0.00 0.00 56 1012.1
20260505194502 13 211 1.6 6.4 0.00 0.00 0.00 55 1012.1
20260505194002 13 210 0.0 3.2 0.00 0.00 0.00 56 1011.9
20260505193504 13 211 0.0 3.2 0.00 0.00 0.00 56 1011.9
20260505193002 13 211 0.0 0.0 0.00 0.00 0.00 56 1011.7
20260505192502 14 211 0.0 0.0 0.00 0.00 0.00 56 1011.7
20260505192002 14 211 0.0 0.0 0.00 0.00 0.00 55 1011.8
20260505191502 14 214 0.0 0.0 0.00 0.00 0.00 56 1011.7
20260505191002 14 257 0.0 3.2 0.00 0.00 0.00 55 1011.7
20260505190502 14 258 1.6 3.2 0.00 0.00 0.00 54 1011.7
20260505190003 14 293 0.0 4.8 0.00 0.00 0.00 53 1011.7
20260505185502 14 36 1.6 4.8 0.00 0.00 0.00 53 1011.7
20260505185002 14 265 1.6 4.8 0.00 0.00 0.00 53 1011.7
20260505184502 14 198 0.0 3.2 0.00 0.00 0.00 53 1011.6
20260505184002 14 303 1.6 3.2 0.00 0.00 0.00 53 1011.6
20260505183502 14 259 1.6 3.2 0.00 0.00 0.00 53 1011.6
20260505183002 15 331 3.2 4.8 0.00 0.00 0.00 52 1011.5
20260505182502 14 152 4.8 6.4 0.00 0.00 0.00 52 1011.6
20260505182002 15 188 3.2 3.2 0.00 0.00 0.00 52 1011.6
20260505181502 15 217 1.6 3.2 0.00 0.00 0.00 52 1011.6
20260505181002 15 236 1.6 3.2 0.00 0.00 0.00 52 1011.6
20260505180503 15 185 3.2 6.4 0.00 0.00 0.00 52 1011.6
20260505180002 15 234 1.6 4.8 0.00 0.00 0.00 52 1011.6
20260505175502 15 325 1.6 6.4 0.00 0.00 0.00 52 1011.5
20260505175002 15 226 1.6 6.4 0.00 0.00 0.00 51 1011.6
20260505174502 15 94 0.0 6.4 0.00 0.00 0.00 51 1011.6
20260505174002 15 232 1.6 3.2 0.00 0.00 0.00 51 1011.6
20260505173502 15 336 1.6 6.4 0.00 0.00 0.00 50 1011.7
20260505173002 15 53 4.8 6.4 0.00 0.00 0.00 50 1011.6
20260505172502 15 79 4.8 8.0 0.00 0.00 0.00 49 1011.7
20260505172002 15 154 3.2 6.4 0.00 0.00 0.00 49 1011.6
20260505171502 15 122 3.2 6.4 0.00 0.00 0.00 49 1011.6
20260505171002 15 324 1.6 6.4 0.00 0.00 0.00 49 1011.6
20260505170502 15 199 3.2 4.8 0.00 0.00 0.00 49 1011.7
20260505170002 16 290 1.6 4.8 0.00 0.00 0.00 49 1011.6
20260505165502 16 232 3.2 4.8 0.00 0.00 0.00 49 1011.7
20260505165002 16 259 1.6 6.4 0.00 0.00 0.00 50 1011.6
20260505164502 16 253 0.0 3.2 0.00 0.00 0.00 50 1011.7
20260505164002 16 31 3.2 6.4 0.00 0.00 0.00 48 1011.5
20260505163504 16 249 1.6 4.8 0.00 0.00 0.00 51 1011.6
20260505163002 16 44 1.6 4.8 0.00 0.00 0.00 49 1011.5
20260505162502 16 228 1.6 3.2 0.00 0.00 0.00 49 1011.5
20260505162002 16 97 1.6 6.4 0.00 0.00 0.00 49 1011.7
20260505161502 16 309 1.6 4.8 0.00 0.00 0.00 49 1011.7
20260505161002 16 118 4.8 6.4 0.00 0.00 0.00 47 1011.7
20260505160502 16 204 1.6 6.4 0.00 0.00 0.00 48 1011.5
20260505153002 16 66 0.0 4.8 0.00 0.00 0.00 49 1011.8
20260505152503 16 233 1.6 4.8 0.00 0.00 0.00 48 1011.7
20260505152002 16 350 3.2 4.8 0.00 0.00 0.00 48 1011.8
20260505151502 16 300 1.6 3.2 0.00 0.00 0.00 49 1011.7
20260505151002 16 248 0.0 8.0 0.00 0.00 0.00 49 1011.7
20260505150502 16 249 0.0 9.7 0.00 0.00 0.00 50 1011.8
20260505140502 16 216 1.6 3.2 0.00 0.00 0.00 50 1012.0
20260505125002 17 117 3.2 4.8 0.00 0.00 0.00 48 1012.2
20260505124502 17 280 3.2 6.4 0.00 0.00 0.00 49 1012.3
20260505124002 17 290 0.0 4.8 0.00 0.00 0.00 52 1012.4
20260505123502 17 247 1.6 4.8 0.00 0.00 0.00 50 1012.2
20260505123002 17 270 1.6 8.0 0.00 0.00 0.00 50 1012.3
20260505122503 17 264 0.0 3.2 0.00 0.00 0.00 50 1012.3
20260505122003 16 280 1.6 6.4 0.00 0.00 0.00 50 1012.2
20260505121502 16 257 0.0 3.2 0.00 0.00 0.00 52 1012.3
20260505121002 16 27 4.8 9.7 0.00 0.00 0.00 49 1012.3
20260505120502 17 86 8.0 14.5 0.00 0.00 0.00 47 1012.5
20260505120002 17 323 1.6 3.2 0.00 0.00 0.00 50 1012.3
20260505115502 17 105 4.8 6.4 0.00 0.00 0.00 50 1012.3
20260505115002 17 98 4.8 8.0 0.00 0.00 0.00 50 1012.3
20260505114502 17 195 3.2 6.4 0.00 0.00 0.00 51 1012.5
20260505114002 17 353 3.2 3.2 0.00 0.00 0.00 49 1012.2
20260505113502 17 110 1.6 9.7 0.00 0.00 0.00 49 1012.4
20260505113002 16 261 1.6 6.4 0.00 0.00 0.00 51 1012.6
20260505112502 17 182 1.6 6.4 0.00 0.00 0.00 48 1012.4
20260505112002 17 71 4.8 9.7 0.00 0.00 0.00 48 1012.5
20260505111502 17 286 0.0 8.0 0.00 0.00 0.00 52 1012.4
20260505111002 17 242 0.0 6.4 0.00 0.00 0.00 52 1012.6
20260505110502 17 276 4.8 6.4 0.00 0.00 0.00 50 1012.6
20260505102002 16 263 1.6 4.8 0.00 0.00 0.00 58 1013.0
20260505101503 16 304 1.6 6.4 0.00 0.00 0.00 57 1013.0
20260505101002 16 286 0.0 6.4 0.00 0.00 0.00 59 1013.1
20260505100502 17 288 3.2 8.0 0.00 0.00 0.00 53 1013.3
20260505100002 17 270 1.6 3.2 0.00 0.00 0.00 56 1013.0
20260505095502 16 240 1.6 6.4 0.00 0.00 0.00 59 1013.4
20260505095002 15 270 0.0 4.8 0.00 0.00 0.00 62 1013.1